Regional Weather Roundup
Issued by NWS Sioux Falls, SD

Home | Current Version | Previous Version | Graphics & Text | Print | Product List | Glossary Off
Versions: 1 2 3 4 5 6 7 8 9 10 11 12 13 14 15 16 17 18 19 20 21 22 23 24 25 26 27 28 29 30 31 32 33 34 35 36 37 38 39 40 41 42 43 44 45 46 47 48 49 50

000
ASUS43 KFSD 232310
RWRFSD

WEATHER ROUNDUP FOR SE SOUTH DAKOTA/SW MINNESOTA/NW IOWA
NATIONAL WEATHER SERVICE SIOUX FALLS SD
600 PM CDT WED APR 23 2014

NOTE: "FAIR" INDICATES FEW OR NO CLOUDS BELOW 12,000 FEET WITH NO
SIGNIFICANT WEATHER AND OR OBSTRUCTIONS TO VISIBILITY.


SDZ038>040-050-052>070-240000-
SOUTHEAST SOUTH DAKOTA

CITY           SKY/WX    TMP DP  RH WIND       PRES   REMARKS
CHAMBERLAIN      N/A     75  44  33 W8        29.50R
HURON          PTSUNNY   69  42  37 SE17G24   29.54F
MADISON        CLOUDY    59  39  47 SE24G30   29.62F
MITCHELL       MOSUNNY   71  45  39 SE28      29.52F
SIOUX FALLS    PTSUNNY   62  41  46 SE18G32   29.63F
WINNER         MOCLDY    75  43  31 NW12      29.52R
YANKTON        PTSUNNY   68  45  42 SE21G30   29.56F
$$

MNZ071-072-080-081-089-090-097-098-240000-
SOUTHWEST MINNESOTA

CITY           SKY/WX    TMP DP  RH WIND       PRES   REMARKS
FAIRMONT       CLOUDY    45  36  70 SE29      29.83F
JACKSON        CLOUDY    46  36  66 SE25G36   29.80R
LUVERNE        MOSUNNY   59  39  47 SE28G37   29.69F
MARSHALL       CLOUDY    48  36  61 SE24G31   29.76F
MONTEVIDEO     CLOUDY    43  37  81 S24       29.82S
PIPESTONE      PTSUNNY   54  39  58 SE25G33   29.70R
REDWOOD FALLS  CLOUDY    45  35  68 SE21G31   29.82F
TRACY          CLOUDY    48  38  69 SE21G30   29.78F
WINDOM         CLOUDY    46  37  71 SE24G33   29.80R
WORTHINGTON    PTSUNNY   50  34  53 SE30G39   29.77F
$$

IAZ001>003-012>014-020>022-031-032-NEZ013-014-SDZ071-240000-
NORTHWEST IOWA

CITY           SKY/WX    TMP DP  RH WIND       PRES   REMARKS
CHEROKEE       MOSUNNY   53  41  62 SE20G32   29.75F
DENISON        PTSUNNY   54  43  66 SE15G31   29.70F
ESTHERVILLE    CLOUDY    45  38  76 SE30G40   29.78F
LE MARS        SUNNY     59  43  55 SE21G33   29.68F
ORANGE CITY    MOSUNNY   59  39  47 SE17G26   29.70S
SHELDON        MOSUNNY   54  39  58 SE30G36   29.71F
SIOUX CITY     SUNNY     62  43  49 SE21G28   29.67F
SPENCER        PTSUNNY   50  38  63 SE26G35   29.78R
STORM LAKE     MOSUNNY   50  41  71 SE29G35   29.76S
$$

ABBREVIATIONS USED IN REMARKS
   TC - TEMPERATURE IN CELSIUS
  WCI - WIND CHILL INDEX
   HX - HEAT INDEX
  VSB - VISIBILITY




USA.gov is the U.S. government's official web portal to all federal, state and local government web resources and services.